TimeEST,TemperatureF,Dew PointF,Humidity,Sea Level PressureIn,VisibilityMPH,Wind Direction,Wind SpeedMPH,Gust SpeedMPH,PrecipitationIn,Events,Conditions,WindDirDegrees,DateUTC
12:00 AM,78.8,71.6,78,29.86,6.2,North,9.2,-,N/A,,Scattered Clouds,360,2012-12-07 05:00:00
1:00 AM,79,74,79,29.86,12,NNE,8.1,,,,Haze,30,2012-12-07 06:00:00
1:00 AM,78.8,73.4,83,29.86,6.2,NNE,8.1,-,N/A,,Scattered Clouds,30,2012-12-07 06:00:00
2:00 AM,78.8,71.6,78,29.83,6.2,East,5.8,-,N/A,,Mostly Cloudy,100,2012-12-07 07:00:00
3:00 AM,78.8,71.6,78,29.80,6.2,North,8.1,-,N/A,,Mostly Cloudy,10,2012-12-07 08:00:00
4:00 AM,79,70,67,29.81,12,North,10.4,,,,Haze,10,2012-12-07 09:00:00
4:00 AM,78.8,69.8,74,29.80,6.2,North,10.4,-,N/A,,Mostly Cloudy,10,2012-12-07 09:00:00
5:00 AM,77.0,69.8,78,29.83,6.2,North,10.4,-,N/A,,Mostly Cloudy,10,2012-12-07 10:00:00
6:00 AM,77.0,71.6,83,29.83,6.2,North,12.7,-,N/A,,Mostly Cloudy,10,2012-12-07 11:00:00
7:00 AM,,,,,6,SSE,82.9,,,,,150,2012-12-07 12:00:00
7:00 AM,78.8,71.6,78,29.83,6.2,North,4.6,-,N/A,,Mostly Cloudy,350,2012-12-07 12:00:00
8:00 AM,78.8,71.6,78,29.86,6.2,NW,3.5,-,N/A,,Mostly Cloudy,310,2012-12-07 13:00:00
9:00 AM,80.6,69.8,70,29.89,6.2,NNW,4.6,-,N/A,,Mostly Cloudy,340,2012-12-07 14:00:00
10:00 AM,81,72,69,29.88,17,NW,4.6,,,,Haze,320,2012-12-07 15:00:00
10:00 AM,80.6,73.4,79,29.86,6.2,NW,4.6,-,N/A,,Mostly Cloudy,320,2012-12-07 15:00:00
11:00 AM,82.4,75.2,79,29.86,6.2,SSE,9.2,-,N/A,,Scattered Clouds,150,2012-12-07 16:00:00
11:31 AM,78.8,73.4,83,29.86,6.2,SE,20.7,-,N/A,,Mostly Cloudy,130,2012-12-07 16:31:00
12:00 PM,80.6,73.4,79,29.86,6.2,SE,20.7,-,N/A,Rain,Light Rain,130,2012-12-07 17:00:00
1:00 PM,83,79,84,29.82,16,SE,9.2,,,Rain,Light Rain,130,2012-12-07 18:00:00
1:00 PM,82.4,78.8,89,29.80,6.2,SE,9.2,-,N/A,,Mostly Cloudy,130,2012-12-07 18:00:00
2:00 PM,84.2,73.4,70,29.80,6.2,SE,6.9,-,N/A,,Mostly Cloudy,130,2012-12-07 19:00:00
3:00 PM,82.4,73.4,74,29.80,6.2,SE,21.9,-,N/A,,Mostly Cloudy,140,2012-12-07 20:00:00
5:00 PM,82.4,73.4,74,29.80,6.2,SE,15.0,-,N/A,,Mostly Cloudy,130,2012-12-07 22:00:00
6:00 PM,80.6,73.4,79,29.80,6.2,ESE,3.5,-,N/A,,Mostly Cloudy,110,2012-12-07 23:00:00
7:00 PM,81,76,82,29.84,12,NW,10.4,,,,Haze,320,2012-12-08 00:00:00
7:00 PM,80.6,77.0,89,29.83,6.2,NW,10.4,-,N/A,,Mostly Cloudy,320,2012-12-08 00:00:00
8:00 PM,78.8,73.4,83,29.86,6.2,NW,5.8,-,N/A,,Mostly Cloudy,310,2012-12-08 01:00:00
9:00 PM,78.8,73.4,83,29.86,6.2,NW,5.8,-,N/A,,Mostly Cloudy,310,2012-12-08 02:00:00
10:00 PM,79,73,76,29.89,12,West,3.5,,,,Mostly Cloudy,270,2012-12-08 03:00:00
10:00 PM,78.8,73.4,83,29.89,6.2,West,3.5,-,N/A,,Mostly Cloudy,270,2012-12-08 03:00:00
11:00 PM,78.8,71.6,78,29.89,6.2,NW,4.6,-,N/A,,Mostly Cloudy,310,2012-12-08 04:00:00